EDT,Max TemperatureF,Mean TemperatureF,Min TemperatureF,Max Dew PointF,MeanDew PointF,Min DewpointF,Max Humidity, Mean Humidity, Min Humidity, Max Sea Level PressureIn, Mean Sea Level PressureIn, Min Sea Level PressureIn, Max VisibilityMiles, Mean VisibilityMiles, Min VisibilityMiles, Max Wind SpeedMPH, Mean Wind SpeedMPH, Max Gust SpeedMPH,PrecipitationIn, CloudCover, Events, WindDirDegrees
2013-10-1,73,58,44,53,48,43,100,79,38,29.98,29.91,29.83,10,8,0,12,6,17,0.01,1,Fog,334
2013-10-2,77,66,55,56,52,44,90,61,39,29.89,29.82,29.75,10,10,10,10,5,20,0.00,0,,271
2013-10-3,73,63,53,47,43,41,74,49,33,30.06,30.01,29.91,10,10,10,10,6,18,0.00,0,,285
2013-10-4,69,59,50,51,46,39,89,62,43,30.10,30.07,30.04,10,10,10,8,3,,0.00,2,,302
2013-10-5,62,56,48,47,43,39,90,64,50,30.17,30.13,30.09,10,10,10,6,3,,0.00,6,,11
2013-10-6,55,48,42,48,40,34,100,73,45,30.30,30.25,30.19,10,9,2,10,6,,0.09,5,Rain,109
2013-10-7,68,58,48,65,56,46,100,97,90,30.22,30.01,29.78,10,4,0,18,8,34,0.59,8,Fog-Rain,154
2013-10-8,61,54,44,60,40,34,93,64,41,30.40,30.15,29.83,10,10,9,16,8,25,0.01,1,Rain,309
2013-10-9,62,49,37,42,38,36,93,71,41,30.50,30.43,30.37,10,10,10,6,2,,0.00,0,,260
2013-10-10,64,50,37,47,41,36,100,86,50,30.36,30.30,30.19,10,6,0,8,2,,0.00,0,Fog,171
2013-10-11,70,56,44,52,48,43,100,78,44,30.20,30.17,30.14,10,10,8,8,3,,0.00,0,,345
2013-10-12,57,54,50,51,49,46,97,86,72,30.43,30.36,30.21,10,10,7,8,4,,0.01,6,,24
2013-10-13,55,52,48,48,46,44,93,80,67,30.48,30.44,30.40,10,10,5,6,2,,0.00,8,,215
2013-10-14,62,50,39,49,44,39,100,83,53,30.39,30.32,30.25,10,9,0,8,3,,0.02,3,Fog-Rain,186
2013-10-15,64,56,48,51,49,47,100,84,56,30.30,30.26,30.21,10,9,0,6,1,,0.00,5,Fog,121
2013-10-16,62,56,51,54,51,44,100,87,57,30.21,30.06,29.91,10,10,5,9,3,,0.00,7,,142
2013-10-17,69,60,51,55,52,50,100,86,55,29.90,29.81,29.73,10,9,2,6,2,,0.00,6,Rain,212
2013-10-18,64,57,50,54,50,40,100,89,47,29.82,29.68,29.59,10,5,0,14,3,22,0.22,6,Fog-Rain,343
2013-10-19,63,53,43,47,40,36,86,63,39,29.93,29.86,29.75,10,10,10,12,5,,0.00,1,,209
2013-10-20,60,53,46,50,39,27,97,65,30,29.95,29.75,29.65,10,10,6,14,7,25,0.01,3,Rain,228
2013-10-21,60,50,39,46,37,32,93,65,38,30.08,30.02,29.95,10,10,10,10,5,,0.00,0,,216
2013-10-22,60,52,44,53,46,36,97,81,60,29.96,29.80,29.70,10,10,9,14,7,23,0.05,4,Rain,205
2013-10-23,52,44,37,38,34,29,97,70,43,29.77,29.69,29.60,10,10,2,7,3,,0.00,2,,251
2013-10-24,48,42,37,32,27,22,73,55,36,29.80,29.69,29.61,10,10,10,13,7,25,0.00,4,,273
2013-10-25,48,42,36,30,27,24,73,57,41,30.08,29.95,29.81,10,10,10,14,6,20,0.00,3,,276
2013-10-26,46,39,32,36,29,24,79,66,50,30.10,30.00,29.86,10,10,10,9,4,22,0.00,5,Rain,201
2013-10-27,54,46,39,39,33,26,97,66,43,29.99,29.85,29.78,10,10,9,16,5,24,0.02,6,Rain,245
2013-10-28,52,42,32,36,28,20,82,63,44,30.35,30.11,30.00,10,10,10,18,6,34,0.00,3,Rain,271
2013-10-29,46,36,26,24,19,12,84,56,26,30.45,30.40,30.35,10,10,10,7,2,,0.00,0,,276
2013-10-30,46,36,27,27,24,19,85,66,34,30.35,30.25,30.17,10,10,10,9,2,17,0.00,2,,261
2013-10-31,55,41,27,56,42,25,100,91,73,30.25,30.04,29.76,10,6,0,13,3,23,0.28,6,Fog-Rain,178